Regional Weather Roundup
Issued by NWS

Home | Current Version | Previous Version | Graphics & Text | Print | Product List | Glossary Off
Versions: 1 2 3 4 5 6 7 8 9 10 11 12 13 14 15 16 17 18 19 20 21 22 23 24 25 26 27 28 29 30 31 32 33 34 35 36 37 38 39 40 41 42 43 44 45 46 47 48 49 50

000
ASUS43 KMKX 020211
RWRWI

WISCONSIN REGIONAL WEATHER ROUNDUP
NATIONAL WEATHER SERVICE MILWAUKEE/SULLIVAN WI
900 PM CDT TUE SEP 01 2015

NOTE: "FAIR" INDICATES FEW OR NO CLOUDS BELOW 12,000 FEET WITH NO
SIGNIFICANT WEATHER AND/OR OBSTRUCTIONS TO VISIBILITY.

WIZ001-002-006>008-014>016-023>028-020300-
NORTHWEST WISCONSIN

CITY           SKY/WX    TMP DP  RH WIND       PRES   REMARKS
SUPERIOR ARPT  CLEAR     68  68  99 CALM      29.91S FOG
ASHLAND        MOCLDY    72  71  97 CALM      29.94R
HAYWARD        MOCLDY    74  71  91 CALM      29.95S
SIREN          FAIR      75  72  92 CALM      29.93S
CUMBERLAND     MOCLDY    72  72 100 CALM      29.95R FOG
RICE LAKE      MOCLDY    75  72  92 CALM      29.95S
CHETEK         MOCLDY   N/A N/A N/A CALM      29.94R
LADYSMITH      CLOUDY    75  72  92 CALM      29.97S
EAU CLAIRE     PTCLDY    78  74  87 CALM      29.93R HX  81
MENOMONIE      MOCLDY    77  74  92 SE5       29.93R
NEW RICHMOND   MOCLDY    76  74  95 CALM      29.94R
OSCEOLA        MOCLDY    75  75 100 CALM      29.95R
$$

WIZ003>005-009-010-017-018-020300-
NORTH CENTRAL WISCONSIN

CITY           SKY/WX    TMP DP  RH WIND       PRES   REMARKS
MANITOWISH WTR PTCLDY    68  68 100 CALM      29.99R FOG
ARBOR VITAE    PTCLDY    72  70  93 CALM      29.99S
WOODRUFF       PTCLDY    72  70  93 CALM      29.99S
RHINELANDER    MOCLDY    71  68  90 CALM      30.00R FOG
EAGLE RIVER    PTCLDY    69  69 100 CALM      29.99R FOG
LAND O LAKES   PTCLDY    67  66  97 CALM      30.00R FOG
PHILLIPS       MOCLDY    72  71  96 CALM      29.97R
TOMAHAWK       CLOUDY    71  69  95 CALM      29.99R FOG
MEDFORD        CLOUDY    71  71 100 CALM      29.98R FOG
MERRILL        CLOUDY    73  73 100 CALM      29.98R FOG
$$

WIZ029-030-035-036-043>047-020300-
CENTRAL WISCONSIN

CITY           SKY/WX    TMP DP  RH WIND       PRES   REMARKS
WAUSAU         CLOUDY    77  71  82 CALM      29.95R
MOSINEE        PTCLDY    73  73 100 S3        29.98R
MARSHFIELD     MOCLDY    75  69  81 CALM      29.97R
STEVENS POINT  MOCLDY    75  70  84 CALM      29.97S
WAUPACA        PTCLDY    78  74  86 CALM      29.96S HX  81
WAUTOMA        PTCLDY    78  74  87 CALM      29.97R HX  80
WISC RAPIDS    MOCLDY    75  70  84 CALM      29.97R
CAMP DOUGLAS   MOCLDY    77  77 100 S3        29.95S
$$

WIZ011>013-019>022-031-037>040-048>050-020300-
NORTHEAST WISCONSIN

CITY           SKY/WX    TMP DP  RH WIND       PRES   REMARKS
ANTIGO         MOCLDY    72  70  94 CALM      29.99R
SHAWANO        PTCLDY    77  71  82 CALM      29.96R
OCONTO         PTCLDY    73  73 100 SE3       29.94R
STURGEON BAY   PTCLDY    72  64  78 S7        29.98S
GREEN BAY      PTCLDY    76  71  85 S5        29.96R
MANITOWOC      CLEAR     64  62  93 MISG      29.98R FOG
APPLETON       MOCLDY    75  68  78 VRB6      29.96R
CLINTONVILLE   PTCLDY    75  70  83 CALM      29.95R
OSHKOSH        PTCLDY    76  71  85 S7        29.96R
$$

WIZ032>034-041-042-053>061-020300-
SOUTHWEST WISCONSIN

CITY           SKY/WX    TMP DP  RH WIND       PRES   REMARKS
LA CROSSE      MOCLDY    79  73  82 SE5       29.93R HX  82
SPARTA         MOCLDY    77  70  78 S3        29.95S
VIROQUA          N/A     76  75  99 S5        29.98S
BOSCOBEL       MOCLDY    78  74  87 SW3       29.96R HX  81
PRAIRIE DU CHI CLOUDY    80  72  76 CALM      29.96R HX  83
PLATTEVILLE    MOCLDY    75  73  93 S7        29.99S
$$

WIZ056-057-062-063-064-067-068-020300-
SOUTH CENTRAL WISCONSIN

CITY           SKY/WX    TMP DP  RH WIND       PRES   REMARKS
REEDSBURG      MOCLDY    77  73  87 CALM      29.96S
BARABOO/DELLS  MOCLDY    76  70  81 S3        29.97S
LONE ROCK      MOCLDY    76  72  87 CALM      29.97R
MINERAL POINT  MOCLDY    77  73  88 S6        30.00S
MADISON        CLEAR     77  71  82 CALM      29.98R
MIDDLETON      CLEAR     73  72  96 CALM      29.99S
WATERTOWN      CLEAR     73  73 100 CALM      29.98S
MONROE         CLEAR     77  72  83 SW10      30.00R
JANESVILLE     CLEAR     79  72  78 SW6       29.98R HX  82
$$

WIZ051-052-058>065-066-070>072-020300-
SOUTHEAST WISCONSIN

CITY           SKY/WX    TMP DP  RH WIND       PRES   REMARKS
MILWAUKEE      PTCLDY    80  70  71 S6        29.98S HX  83
WAUKESHA       NOT AVBL
MILWAUKEE/TIMM CLEAR     81  68  65 S5        29.99R HX  83
RACINE         CLEAR     79  69  71 S5        30.01R HX  81
BURLINGTON     CLEAR     71  69  93 CALM      30.00R
KENOSHA        CLEAR     79  70  74 S7        30.00R HX  82
FOND DU LAC    PTCLDY    76  72  87 S6        29.97R
SHEBOYGAN      CLEAR     73  69  87 CALM      29.98R FOG
WEST BEND      CLEAR     73  70  88 CALM      29.99S
JUNEAU         CLEAR     75  71  86 S5        30.00R
$$

LSZ147-162-020300-
LAKE SUPERIOR

STATION/POSITION TIME  TEMP    WIND        PRES    WAVE
                       AIR SEA DIR/SP/G            HT/PER
                 (UTC) (F)     (DEG/KT/KT) (MB)    (FT/S)
W MID LAKE BUOY  0150   60 56  210/  2/  4 1013.1R   0
DEVILS ISLAND    0200   69     120/  5/  6 1013.2R
PORT WING        0140   74     100/  2/  4 1013.2R
SAXON HARBOR     0140   70        CALM     1012.9R
$$

LMZ867-665-643>646-020300-
LAKE MICHIGAN

STATION/POSITION TIME  TEMP    WIND        PRES    WAVE
                       AIR SEA DIR/SP/G            HT/PER
                 (UTC) (F)     (DEG/KT/KT) (MB)    (FT/S)
CHAMBERS ISLAND  0100   75     160/  3/  5 1013.9R
S GREEN BAY BUOY 0100   72 67  170/  4/  6 1015.2R
N MID LAKE BUOY  0150   67 65  210/ 14/ 16 1014.0R   2/ 4
NORTHPORT PIER   0100   67     180/  6/  8 1013.9R
SISTER BAY       0104   67     160/ 10/ 12   N/A
ALGOMA LAKESHORE 0114          220/  5/  7   N/A
KEWAUNEE LAKESHO 0100   51     170/  2/  3 1013.4R
SHEBOYGAN LAKESH 0200   66     180/  8/  9 1015.0R
PORT WASHINGTON  0100   62     160/  1/  2 1015.6
ATWATER BUOY     0200   59 50  170/  8/  8 1016.6R
MILWAUKEE LAKESH 0110          160/  1/  2   N/A
S MID LAKE BUOY  0150   73 70  180/ 10/ 12 1015.5R   1/ 4
KENOSHA   LAKESH 0200   80     190/  6/  8 1015.6R
$$

TC  - TEMPERATURE IN CELSIUS
VSB - VISIBILITY IN STATUTE MILES
WCI - WIND CHILL INDEX
HX  - HEAT INDEX




USA.gov is the U.S. government's official web portal to all federal, state and local government web resources and services.